Temp
18 17 18 20 19 19 20 19 19 18 19 20 18 18 17 15 14 13 12 12 12 11 12 13 16 18 19 18 18 18 18 17 17 16 15 15 15 16 16 16 16 16 15 15
17 18 19 19 19 20 19 19 18 18 19 19 19 19 18 14 15 12 11 12 12 12 12 13 13 15 16 18 18 18 18 18 17 17 17 16 16 16 16 16 16 16 16 16
18 20 20 21 20 20 20 19 19 20 18 18 19 18 17 17 14 14 12 11 12 11 12 12 12 12 14 15 17 18 18 18 17 17 17 16 15 16 16 16 16 16 16 16
18 19 21 20 21 19 20 19 20 20 18 17 17 16 18 16 13 12 10 10 11 11 12 12 12 12 11 14 16 16 17 17 17 17 16 17 17 16 17 17 17 17 16 16
20 20 20 21 21 19 19 19 19 19 16 17 17 16 16 16 14 12 11 11 11 10 11 11 12 12 11 12 14 15 15 16 16 16 16 16 16 17 17 17 17 17 16 16
17 17 20 20 20 20 18 18 15 13 13 15 16 16 15 14 15 13 11 10 10 10 11 11 12 12 11 11 12 14 15 15 15 15 15 15 16 16 16 16 16 16 16 16
16 19 19 20 20 19 17 15 16 17 16 17 16 15 14 13 12 12 11 10 9 9 10 10 10 11 11 11 11 11 13 13 14 14 15 15 15 15 16 16 16 16 16 16
15 18 19 19 19 19 18 16 16 20 17 16 16 16 13 13 11 11 11 10 10 10 10 10 10 10 10 11 11 12 12 13 13 14 14 14 14 14 14 15 15 15 15 16
14 17 17 19 19 19 18 17 16 15 14 14 14 14 14 12 11 11 10 10 9 9 9 9 10 10 10 10 11 11 12 13 13 13 14 14 14 14 14 13 13 14 14 15
14 14 17 17 18 17 18 16 17 13 18 17 14 14 13 13 11 11 10 9 9 9 9 9 10 10 10 11 11 12 12 12 12 13 13 13 13 13 13 13 13 13 14 14
12 13 15 16 16 16 15 15 14 13 13 16 15 13 12 12 11 10 9 9 9 8 8 8 9 10 10 11 11 11 11 12 12 12 13 13 13 13 13 13 13 13 13 13
12 11 12 15 15 14 14 14 12 13 15 11 12 12 10 9 10 9 9 9 9 8 8 8 9 9 10 10 10 11 11 11 11 12 12 12 12 12 12 12 12 13 13 13
11 11 11 14 15 13 11 12 13 12 10 12 12 11 10 8 8 8 9 9 9 9 8 8 9 9 9 10 10 10 11 11 11 11 11 12 11 11 11 12 12 12 12 12
11 10 11 12 12 11 11 11 11 13 11 12 11 9 10 9 8 8 8 8 8 8 9 9 9 9 9 9 10 10 10 10 10 11 11 11 11 11 11 11 11 11 11 12
7 9 9 10 10 10 11 10 9 11 12 11 11 9 8 9 9 9 8 8 8 8 9 9 8 9 9 9 9 9 10 10 10 10 10 10 10 10 10 11 10 11 11 11
6 8 7 8 9 9 9 8 9 8 8 9 8 8 9 9 9 8 7 7 7 7 8 8 8 8 8 8 8 8 8 8 9 9 9 9 9 9 10 10 10 10 10 10
6 6 6 7 7 7 9 7 7 7 7 8 8 8 9 8 8 9 9 7 7 7 7 7 7 7 7 7 7 7 7 7 8 8 8 8 8 8 8 9 9 9 10 10
5 6 6 6 6 9 8 8 8 8 8 8 8 8 8 8 8 8 8 8 6 6 6 6 6 6 6 6 6 5 6 6 6 6 6 5 6 6 7 7 8 8 8 9
5 6 6 6 6 7 8 9 9 8 8 9 8 9 9 9 8 8 9 7 6 6 6 5 5 5 4 4 4 4 4 4 4 4 4 4 5 5 5 5 6 6 6 7
5 4 5 5 6 8 7 8 8 8 7 8 8 8 8 8 6 6 5 5 5 5 4 3 3 3 2 2 2 2 2 3 3 3 3 3 3 4 4 4 5 5 5 5
5 5 4 4 6 6 8 8 8 7 6 8 8 8 8 6 5 5 4 4 4 3 2 2 1 1 1 1 1 1 1 2 2 2 2 2 2 2 3 3 3 4 4 4
6 4 4 5 6 6 8 9 7 7 7 7 7 7 7 6 4 4 3 2 1 1 0 0 0 -0 -0 0 0 0 0 0 -0 0 1 1 1 1 2 2 2 3 3 4
4 4 2 4 5 5 8 8 8 6 5 6 7 5 5 4 3 2 1 0 0 -0 -1 -1 -1 -1 -1 -1 -1 -1 -1 -1 -2 -1 -0 0 0 1 0 1 2 2 3 3
4 3 2 3 5 5 5 4 4 5 6 4 4 4 3 2 1 0 -0 -1 -1 -1 -1 -1 -2 -1 -1 -2 -2 -2 -3 -3 -3 -3 -2 -1 -1 -1 -0 0 0 0 1 1
3 4 2 1 3 3 4 4 4 5 4 3 3 3 2 1 -0 -1 -1 -1 -2 -2 -2 -2 -1 -2 -2 -3 -3 -3 -3 -3 -3 -3 -2 -2 -2 -1 -1 -1 -1 -0 -0 0
1 2 1 2 3 4 4 5 5 4 3 3 2 2 1 0 -1 -1 -2 -2 -2 -2 -2 -3 -2 -3 -3 -3 -3 -3 -3 -3 -3 -3 -3 -2 -3 -3 -2 -2 -2 -2 -1 -1
Height
805 816 818 810 811 811 813 817 821 817 808 809 815 815 816 814 810 809 806 802 797 793 787 780 775 775 777 780 784 788 793 797 803 807 811 814 816 819 822 824 826 829 831 832
815 817 805 805 808 810 814 818 822 815 810 812 816 818 816 819 817 818 816 808 804 796 789 783 778 775 776 777 780 783 788 792 797 802 806 809 812 815 818 821 823 825 827 829
816 805 801 802 806 810 812 819 817 816 814 813 815 824 823 818 821 818 817 816 809 805 799 791 785 780 777 778 779 781 785 789 794 799 803 807 810 812 814 815 817 819 822 824
813 803 802 804 807 811 815 809 808 811 822 833 821 843 825 828 830 827 827 822 817 811 805 799 791 785 780 776 778 782 786 789 793 796 800 802 804 806 807 810 813 816 819 820
811 805 805 807 804 805 813 807 812 812 826 827 828 837 831 825 836 837 834 829 824 819 813 806 799 794 788 782 781 784 787 791 794 797 800 802 804 805 806 808 810 812 814 816
812 805 804 804 803 803 807 814 825 833 837 843 828 832 840 839 834 839 840 834 829 824 818 813 808 802 795 790 786 787 789 792 795 797 799 801 803 805 806 808 810 810 810 811
819 807 803 802 807 807 814 828 840 835 841 838 829 836 844 842 841 840 842 840 835 830 825 820 815 810 805 800 797 795 794 795 796 798 799 800 801 802 802 803 804 805 806 807
836 824 808 805 808 813 817 824 840 828 838 837 828 838 847 844 844 843 842 841 838 834 831 827 823 819 815 811 807 805 803 801 801 800 799 799 799 799 799 800 801 801 801 801
842 825 811 805 806 809 819 827 824 839 845 846 843 843 842 846 847 847 846 845 843 839 836 833 829 826 823 820 817 814 811 809 807 806 803 801 799 797 796 796 796 796 796 796
841 843 817 813 807 812 813 819 830 843 834 836 845 841 845 845 848 849 851 850 848 844 840 836 834 831 828 826 823 820 817 815 813 810 808 806 804 801 799 796 794 792 791 790
846 844 830 818 824 825 828 829 834 838 845 838 844 844 845 844 848 854 854 852 850 847 845 842 838 835 833 829 826 824 821 818 816 814 811 809 806 804 801 798 795 792 789 787
848 854 850 830 824 826 829 835 844 848 838 851 849 849 854 854 852 853 854 853 851 849 847 844 841 838 834 832 829 827 825 822 820 817 814 811 808 805 802 800 797 794 790 788
851 855 856 836 832 833 842 842 841 845 854 847 848 852 856 858 856 855 854 853 852 850 847 844 841 839 837 835 833 830 828 825 822 819 815 812 809 806 804 801 798 795 791 788
851 858 854 854 849 855 851 846 847 843 851 845 845 860 858 858 859 858 856 853 851 849 847 844 842 841 839 837 835 832 829 826 823 819 816 812 810 807 804 802 799 795 792 788
867 864 864 856 857 855 851 850 855 849 842 845 840 854 858 857 858 857 857 855 853 851 848 847 846 843 840 837 834 832 829 826 823 819 816 813 810 807 804 801 798 795 792 789
875 872 874 867 856 859 858 859 854 858 856 855 858 862 857 857 858 859 859 857 856 854 851 849 847 845 842 839 836 832 828 825 822 818 815 812 809 805 802 799 796 793 790 787
879 880 880 874 869 865 858 865 865 864 863 857 862 861 858 859 859 857 856 857 857 856 854 851 849 847 844 840 837 832 827 823 820 817 813 810 807 803 800 797 793 790 787 784
880 880 879 880 876 860 866 859 859 862 861 862 861 861 859 859 858 857 856 856 856 855 854 852 850 847 843 840 837 834 829 824 820 816 813 809 806 802 798 794 791 787 784 781
879 879 881 884 883 869 864 858 859 860 862 858 860 860 859 858 858 856 855 856 857 857 855 852 850 847 844 839 835 831 827 824 821 816 812 808 804 800 796 793 789 785 782 778
880 883 885 887 880 864 865 859 858 859 868 861 860 859 858 859 867 862 858 858 857 856 855 852 849 846 843 839 835 830 825 821 818 815 811 807 803 799 794 790 786 783 779 775
885 884 893 889 881 871 861 861 857 864 871 858 858 858 858 861 862 860 859 858 858 856 854 851 849 845 842 837 833 829 825 821 816 812 808 804 801 797 792 787 783 778 774 769
884 891 888 883 878 874 858 859 866 864 859 858 856 855 856 858 859 859 858 858 856 854 851 849 846 843 840 836 831 827 823 820 815 810 805 800 796 792 788 784 780 776 771 766
892 886 895 887 875 865 859 857 857 858 858 854 853 855 857 858 859 859 858 857 856 853 851 848 845 842 839 835 831 827 823 818 813 808 804 799 795 790 786 782 777 773 770 765
882 880 886 880 867 863 859 858 857 854 853 854 854 855 857 858 859 859 859 857 855 853 851 848 844 840 838 834 831 828 823 817 811 806 801 797 793 789 785 781 778 774 769 764
880 877 879 880 868 863 856 855 853 851 852 853 853 854 855 856 857 857 856 855 854 852 849 846 843 840 837 833 830 826 821 816 811 805 800 796 791 787 783 781 777 774 771 768
875 873 878 874 859 859 856 852 850 850 850 850 851 852 853 854 855 855 854 853 852 850 847 844 842 839 836 832 829 825 821 816 812 807 802 798 794 789 785 781 777 775 771 767
Wind_Speed
3 5 1 3 3 2 2 1 3 4 3 3 2 5 7 9 11 15 13 13 14 11 13 20 10 18 26 28 29 30 30 31 31 29 28 28 28 27 26 24 21 19 18 18
6 1 3 1 3 2 2 1 4 4 3 3 2 4 4 8 6 6 9 14 15 15 17 22 26 15 17 25 29 30 31 32 32 33 30 27 26 25 27 25 23 21 21 20
3 3 0 3 2 1 2 4 3 3 4 4 2 3 4 4 6 10 13 8 13 13 15 16 22 25 16 10 23 28 29 30 30 31 30 25 23 24 22 27 27 25 22 21
3 3 1 1 1 5 2 4 3 2 3 3 2 3 2 3 9 10 12 12 13 15 15 15 23 27 27 15 8 18 23 26 27 28 30 30 30 27 29 27 23 23 23 23
4 2 1 0 2 4 4 2 2 0 3 2 1 4 4 1 7 7 10 12 12 12 13 17 23 27 30 28 11 2 10 15 19 22 26 28 29 29 28 23 21 21 22 24
5 3 2 2 2 1 4 4 6 4 3 1 3 4 3 3 2 3 5 10 12 12 14 20 26 29 33 36 32 16 6 1 8 13 19 23 25 27 26 25 24 22 21 21
6 1 3 1 2 2 5 5 3 3 3 4 2 4 0 3 5 3 5 8 9 10 12 15 20 27 31 35 36 33 26 19 7 4 10 15 20 23 25 26 26 26 25 25
3 4 3 4 2 1 3 4 4 3 1 3 3 2 1 2 5 5 5 5 7 10 10 13 20 24 28 31 37 38 36 34 33 28 17 7 12 17 22 25 26 27 28 28
5 4 5 2 1 2 1 1 3 4 2 2 2 3 3 5 6 6 6 7 8 9 9 11 20 24 27 31 34 35 36 35 32 31 30 32 27 15 11 15 19 22 25 27
2 5 2 5 1 4 1 3 2 3 2 4 2 3 3 5 5 4 6 7 7 7 10 11 19 23 27 31 33 35 34 32 31 30 28 29 30 28 26 22 18 14 17 19
3 2 6 3 5 2 5 3 5 3 3 3 2 3 4 2 5 6 4 5 6 7 7 7 16 22 26 32 35 33 35 33 31 29 29 26 26 28 27 27 25 23 19 14
2 2 4 6 2 2 4 4 4 3 3 0 2 3 4 4 4 6 5 5 5 6 6 9 16 21 27 30 32 30 31 31 28 28 28 26 24 25 28 27 27 25 23 21
4 2 4 7 4 5 6 3 2 2 2 3 2 2 4 6 6 5 5 5 4 4 7 7 16 20 24 27 29 29 29 29 28 26 28 26 26 25 26 27 25 26 24 23
1 1 4 5 3 0 5 5 3 2 1 2 4 6 1 3 5 5 6 5 6 7 10 11 12 16 21 24 27 29 28 27 27 27 28 27 24 24 24 26 26 25 24 23
4 1 3 3 5 4 5 3 3 4 5 5 4 8 5 3 4 3 3 6 7 8 10 9 9 17 22 24 25 27 30 28 27 27 28 27 24 23 25 25 26 25 24 24
6 2 4 4 5 4 5 3 2 3 3 3 7 4 1 2 3 2 4 6 6 7 9 9 12 17 19 22 25 28 28 31 29 28 28 26 26 25 27 26 25 27 25 26
2 1 3 4 5 7 2 2 4 2 3 2 2 1 2 3 4 2 2 6 6 6 6 8 13 17 19 23 26 28 32 32 31 29 26 26 27 29 29 28 27 27 26 26
2 2 1 3 6 3 1 3 6 5 3 5 4 3 2 2 3 4 3 4 7 7 7 10 16 21 23 25 22 22 26 29 29 25 24 25 26 27 30 30 29 29 29 27
5 2 1 1 2 3 2 2 1 0 2 1 3 2 2 3 4 6 4 5 5 7 13 15 19 21 23 25 26 25 23 20 21 20 25 27 27 27 26 27 30 30 30 30
5 3 2 0 1 4 2 2 4 3 2 6 4 5 3 1 1 4 6 8 11 15 14 18 21 21 21 21 25 25 25 22 20 23 24 24 26 26 26 28 28 29 29 28
2 1 2 3 3 5 1 3 2 4 3 5 5 5 3 3 3 2 6 8 11 12 18 17 17 18 21 23 24 20 21 22 26 27 26 26 24 25 26 26 28 28 29 28
1 1 3 2 3 6 2 1 1 4 2 5 5 3 2 2 5 4 4 7 11 14 16 18 17 17 20 22 23 22 21 23 23 23 25 26 27 28 25 26 26 26 26 25
3 5 3 5 4 3 2 4 4 5 7 4 2 3 1 3 3 5 5 8 11 13 16 17 17 17 17 16 18 19 22 24 26 24 23 23 24 25 25 25 26 25 23 22
5 2 3 2 4 7 6 6 5 4 4 2 2 1 0 3 4 4 5 7 10 12 13 15 15 12 14 17 17 17 20 23 23 23 23 21 22 22 21 21 21 22 23 25
5 2 3 5 9 7 7 5 5 3 3 4 3 2 3 1 3 4 4 7 9 11 12 13 11 12 15 17 18 18 21 22 21 21 21 22 20 22 22 21 21 21 20 24
5 6 4 5 7 6 6 6 5 6 6 4 1 1 2 2 3 5 6 7 7 7 10 12 13 13 17 18 17 20 22 21 20 20 20 21 21 22 22 23 22 21 22 22
Wind_Direction
5 60 186 246 190 132 125 152 267 262 272 61 49 64 5 347 25 19 10 6 5 358 324 2 335 244 234 230 226 226 222 223 222 221 223 230 235 238 240 241 244 247 248 250
20 241 206 201 143 153 169 277 280 285 332 106 148 78 22 22 21 16 2 10 4 2 6 4 12 18 237 228 224 223 224 224 223 224 224 226 234 242 244 244 245 247 247 248
162 234 312 178 144 192 247 185 222 219 347 69 113 5 25 33 31 28 22 5 15 10 4 7 10 12 11 249 228 226 225 226 225 224 223 224 233 241 243 243 244 244 246 247
232 287 344 119 249 135 278 198 169 156 77 211 56 263 30 32 23 24 9 13 9 6 8 12 15 17 13 10 239 234 232 228 228 227 226 224 226 229 241 246 255 255 252 251
263 334 5 10 229 172 218 57 10 338 118 73 297 95 262 297 27 358 3 10 11 8 13 13 14 20 24 36 44 234 231 230 231 233 235 236 236 243 250 255 261 262 256 252
247 300 260 249 53 35 112 77 40 47 84 21 255 133 325 2 119 10 359 14 14 8 17 23 23 26 28 35 47 55 67 196 238 239 240 243 247 252 259 266 271 270 265 258
333 320 323 32 45 38 72 55 342 354 5 234 300 69 17 22 62 74 40 14 6 13 23 25 23 24 27 30 37 46 59 50 34 309 269 264 262 262 265 268 270 272 273 272
26 345 21 344 87 175 48 135 152 276 241 267 348 125 100 81 77 62 47 21 31 32 28 30 26 28 28 30 36 44 48 54 56 56 44 340 284 276 276 278 280 279 279 281
11 283 320 45 3 94 143 123 174 103 12 31 160 88 88 106 63 53 41 36 27 26 25 28 28 28 28 30 35 39 43 47 47 48 49 48 44 24 322 299 292 291 288 288
345 313 328 295 86 31 96 163 41 18 242 265 301 216 196 160 123 84 50 43 26 19 27 27 27 24 31 33 32 37 39 39 40 42 42 43 42 42 41 37 18 339 307 297
358 102 294 345 31 36 356 14 45 124 142 203 178 244 4 251 137 112 67 57 42 30 20 16 24 28 31 29 28 30 30 30 32 32 31 32 33 33 33 32 27 22 14 347
2 128 284 250 345 327 58 66 59 96 289 165 177 250 11 55 91 107 73 54 38 36 17 17 23 25 23 20 22 23 22 22 22 22 23 26 25 25 24 23 21 19 19 18
327 357 349 348 7 19 46 33 82 190 80 230 167 216 41 49 69 48 67 55 36 18 15 10 20 17 13 13 15 14 14 14 15 14 16 18 17 17 17 15 13 14 12 11
211 120 191 211 259 225 307 332 29 148 186 267 236 163 137 48 72 42 32 17 23 21 15 10 13 7 2 5 4 5 6 6 6 7 8 9 10 9 7 7 8 7 6 6
62 290 332 292 280 255 253 304 311 229 243 208 194 155 179 163 133 77 38 30 21 6 5 2 353 349 352 353 353 354 357 357 356 358 359 359 358 0 0 360 2 1 2 1
359 307 352 280 317 328 276 344 121 20 345 51 89 75 31 65 59 99 49 34 15 356 348 345 345 347 346 345 343 343 347 348 349 350 351 352 353 351 353 353 353 354 354 354
348 61 29 271 335 313 282 41 86 72 18 72 87 62 10 37 28 3 351 26 1 344 333 339 341 342 340 340 344 344 342 344 345 345 349 350 348 345 344 345 344 346 347 346
197 150 152 282 337 236 129 92 130 111 35 50 64 57 45 343 297 271 242 10 352 348 347 340 344 339 339 341 344 340 339 340 345 348 348 347 345 340 339 339 339 338 339 338
179 132 292 323 278 300 257 183 61 312 203 51 135 168 244 286 334 306 53 28 1 355 341 339 343 340 338 339 340 340 338 337 337 337 337 335 334 332 332 332 333 333 332 330
91 78 99 17 274 265 172 314 287 182 225 308 278 239 256 120 225 259 6 1 345 346 350 345 336 335 335 335 335 334 330 330 334 332 328 328 328 325 325 323 321 319 320 316
3 32 188 260 268 285 225 288 311 187 169 274 197 236 249 225 213 291 341 338 342 340 337 338 334 330 331 328 331 331 331 327 328 327 326 324 324 321 319 318 318 319 318 313
264 335 228 190 233 265 221 52 5 252 284 257 253 217 232 278 311 325 336 341 343 339 338 337 334 333 331 336 336 330 330 334 333 332 329 327 325 322 319 317 314 320 321 317
276 204 211 181 237 227 288 236 232 273 251 255 197 139 143 299 320 333 327 329 332 334 331 331 330 330 336 348 349 343 340 340 334 329 324 321 322 324 326 327 326 323 322 317
266 159 218 3 271 256 275 275 251 256 249 149 104 119 347 268 297 298 301 315 325 325 323 327 327 337 349 347 352 350 344 342 337 331 329 335 328 332 331 332 331 330 335 337
220 194 219 254 274 288 288 252 250 236 161 160 161 183 168 231 283 287 298 315 317 316 334 342 351 353 343 348 350 353 350 347 344 343 343 340 346 348 345 348 345 345 347 343
184 205 182 231 234 218 256 273 263 207 217 223 241 219 213 237 275 299 306 308 312 334 352 352 350 349 348 351 0 1 1 1 2 358 352 359 1 353 355 355 355 3 2 3